Find Starlink 6179

NORAD ID: 56910 Int'l Des: 2023-083 Owner: SPXS Country: US Constellation: starlink operational
LEOCIRCULAR

Aktuelle Ansicht

3D-Globus wird geladen...

Über Starlink 6179

Beschreibung wird geladen...

Nächste Überflüge

Passes for default location (London). Set your location on the main map for personalized predictions.

Höhenverlauf

Loading altitude history...

Zweizeiliger Elementsatz

1 56910U 23083AL 26149.54405847 -.00000026 00000-0 85693-5 0 9991
2 56910 43.0051 334.0689 0001016 261.2185 98.8552 15.27577794164150
Epoch: 29. Mai 2026 • Age: 18 hours

Aktueller Status

Höhe 485.6 km
Geschwindigkeit 7.62 km/s
Subsatellitenpunkt -14.86°S, 170.43°E
Startdatum 12. Juni 2023
Alter 2.9 years
Typ internet

Technische Details

Klassifizierung Payload
Masse 305.00 kg
Trockenmasse 290.00 kg
Gesamtmasse 305.00 kg
Länge 0.20 m
Durchmesser 2.80 m
Spannweite 9.00 m
Form Box + pan
Hersteller SPXS
Bus-Typ Starlink
Phasenstatus In Orbit
Besitzer/Staat SPXS/US

Most Searched